This demonstration page uses our WeatherBlox Daily Observations layout. Learn more.

Left ArrowRight Arrow

44.89941, -97.11507

Hourly Observations for December 2, 2022

Temp ( °F °C ) Dew Point ( °F °C ) Humidity (%) Winds ( mph kmh ) Pressure ( in mb ) Visibility ( mi km ) Precip ( " mm )
12:53 am 00:53 Clear 29 -1.7 24 -4.4 82 82 SSE 14 22 29.56 1001 10 16 0.00 0.00
1:53 am 01:53 Clear 31 -0.6 25 -3.9 78 78 S 15 24 29.53 1000 10 16 0.00 0.00
2:53 am 02:53 Clear 35 1.7 26 -3.3 69 69 S 15 24 29.50 999 10 16 0.00 0.00
3:53 am 03:53 Clear 34 1.1 26 -3.3 72 72 S 14 22 29.50 999 10 16 0.00 0.00
4:53 am 04:53 Clear 33 0.6 26 -3.3 75 75 S 13 20 29.50 999 10 16 0.00 0.00
5:53 am 05:53 Clear 32 0 26 -3.3 78 78 SSE 8 13 29.49 999 10 16 0.00 0.00
6:53 am 06:53 Clear 30 -1.1 25 -3.9 81 81 SSE 10 17 29.48 998 10 16 0.00 0.00
7:53 am 07:53 Sunny 30 -1.1 26 -3.3 85 85 S 8 13 29.49 999 10 16 0.00 0.00
8:53 am 08:53 Sunny 30 -1.1 26 -3.3 85 85 S 6 9 29.50 999 10 16 0.00 0.00
9:53 am 09:53 Sunny 35 1.7 29 -1.7 78 78 W 9 15 29.53 1000 10 16 0.00 0.00
10:14 am 10:14 Sunny 33 0.6 27 -2.8 78 78 NW 17 28 29.56 1001 10 16 0.00 0.00
10:42 am 10:42 Mostly Cloudy 30 -1.1 25 -3.9 81 81 NNW 21 33 29.60 1003 10 16 0.00 0.00
10:53 am 10:53 Cloudy 28 -2.2 24 -4.4 85 85 NW 22 35 29.59 1002 10 16 0.00 0.00
11:53 am 11:53 Cloudy 24 -4.4 21 -6.1 88 88 NNW 22 35 29.62 1003 8 13 0.00 0.00
12:45 pm 12:45 Windy with Snow Likely 20 -6.7 18 -7.8 92 92 NNW 24 39 29.72 1006 4 6 0.01 0.13
12:53 pm 12:53 Cloudy with Mist and Fog 20 -6.7 18 -7.8 92 92 NNW 22 35 29.67 1005 5 8 0.01 0.13
1:31 pm 13:31 Windy with Snow Likely 19 -7.2 16 -8.9 88 88 NW 22 35 29.80 1009 2 3 0.01 0.13
1:41 pm 13:41 Windy with Snow Likely 19 -7.2 15 -9.4 84 84 NW 20 31 29.81 1010 1 2 0.01 0.13
1:53 pm 13:53 Windy with Snow Likely 18 -7.8 14 -10 84 84 NW 21 33 29.75 1007 2 3 0.01 0.13
2:20 pm 14:20 Windy with Snow Likely 17 -8.3 13 -10.6 83 83 NW 26 43 29.84 1010 1 2 0.01 0.13
2:53 pm 14:53 Windy with Snow Likely 15 -9.4 11 -11.7 83 83 NNW 28 44 29.78 1009 1 2 0.01 0.13
3:10 pm 15:10 Windy with Snow Likely 15 -9.4 11 -11.7 83 83 NW 29 46 29.89 1012 2 3 0.01 0.13
3:24 pm 15:24 Windy with Snow Likely 15 -9.4 9 -12.8 76 76 NW 29 46 29.91 1013 6 10 0.01 0.13
3:53 pm 15:53 Windy with Snow Likely 15 -9.4 9 -12.8 76 76 NW 25 41 29.87 1012 9 14 0.01 0.13
4:06 pm 16:06 Windy with Snow Likely 15 -9.4 10 -12.2 80 80 NW 23 37 29.95 1014 2 3 0.01 0.13
4:13 pm 16:13 Windy with Snow Likely 15 -9.4 11 -11.7 83 83 NW 25 41 29.97 1015 1 1 0.01 0.13
4:25 pm 16:25 Windy with Snow Likely 13 -10.6 10 -12.2 88 88 NW 30 48 29.99 1015 2 2 0.01 0.13
4:30 pm 16:30 Windy with Snow Likely 13 -10.6 9 -12.8 84 84 NW 24 39 30.01 1016 3 5 0.01 0.13
4:53 pm 16:53 Windy with Snow Likely 13 -10.6 8 -13.3 80 80 NW 31 50 29.95 1014 4 6 0.01 0.13
5:02 pm 17:02 Windy with Snow Likely 13 -10.6 7 -13.9 77 77 NW 24 39 30.03 1017 9 14 0.01 0.13
5:53 pm 17:53 Windy with Snow Likely 13 -10.6 8 -13.3 80 80 NW 26 43 30.01 1016 2 2 0.01 0.13
6:04 pm 18:04 Windy with Snow Likely 12 -11.1 8 -13.3 84 84 NW 28 44 30.10 1019 3 5 0.01 0.13
6:53 pm 18:53 Cloudy 12 -11.1 7 -13.9 80 80 NW 25 41 30.07 1018 10 16 0.01 0.13
7:20 pm 19:20 Mostly Cloudy with Light Snow 10 -12.2 5 -15 80 80 NW 28 44 30.20 1023 3 5 0.01 0.13
7:48 pm 19:48 Windy with Snow Likely 9 -13 5 -15 85 85 WNW 24 39 30.23 1024 2 3 0.01 0.13
7:53 pm 19:53 Windy with Snow Likely 9 -12.8 4 -15.6 79 79 WNW 25 41 30.14 1021 3 5 0.01 0.13
8:53 pm 20:53 Mostly Cloudy 7 -13.9 1 -17.2 76 76 WNW 24 39 30.19 1022 10 16 0.01 0.13
9:23 pm 21:23 Mostly Cloudy 6 -14.4 1 -17.2 79 79 NW 24 39 30.31 1026 8 13 0.00 0.00
9:53 pm 21:53 Cloudy 5 -15 -1 -18.3 76 76 NW 23 37 30.24 1024 10 16 0.01 0.13
10:53 pm 22:53 Cloudy with Haze 3 -16.1 -2 -18.9 79 79 WNW 21 33 30.28 1026 6 10 0.01 0.13
11:53 pm 23:53 Mostly Cloudy 1 -17.2 -5 -20.6 75 75 NW 18 30 30.33 1027 10 16 0.00 0.00

Powered by AerisWeather